Theta_e
320 320 321 321 321 321 320 320 321 321 321 321 322 322 322 322 321 319 316 317 320 333 327 310 311 313 310 303 304 303 293 292 297 301 306 312 307 312 315 312 320 326 328 332 333
319 320 321 321 320 320 320 320 320 320 321 321 322 322 322 322 316 313 328 329 335 334 308 307 308 308 301 302 302 298 292 295 301 302 302 307 307 310 311 311 314 327 335 338 339
319 319 320 319 319 319 319 319 320 320 321 321 321 321 321 320 314 309 334 335 333 328 312 313 313 307 299 300 301 299 295 300 303 305 305 305 307 309 308 306 310 314 331 334 334
318 319 318 318 318 319 318 319 319 319 320 320 320 321 322 317 301 309 337 338 333 318 312 312 308 300 297 298 303 304 304 303 303 306 304 303 307 308 308 309 316 317 319 333 331
317 317 317 317 318 318 318 318 319 319 319 319 320 323 317 312 311 320 340 334 317 310 309 308 303 301 298 302 302 299 303 305 306 305 302 305 305 305 307 312 314 315 315 315 328
317 317 317 317 317 317 317 317 317 317 318 319 322 323 317 308 316 320 319 316 315 310 311 308 304 307 302 303 300 304 303 304 305 304 303 302 304 305 308 313 313 314 313 312 314
316 316 316 316 316 317 317 316 316 317 318 321 325 320 315 312 317 318 317 314 315 316 312 313 311 306 305 302 306 305 299 302 303 305 303 306 304 305 309 313 312 314 314 316 316
316 315 315 316 316 317 317 316 316 317 319 324 326 316 312 318 314 313 315 315 317 316 315 314 311 306 303 306 305 301 297 292 302 306 307 304 298 307 312 312 311 314 322 328 326
316 315 314 315 316 316 315 314 317 319 322 326 318 314 312 318 313 318 314 315 316 315 313 318 306 303 305 299 297 297 294 296 301 305 305 303 300 314 317 319 319 326 328 332 329
315 314 314 314 315 315 314 314 319 320 320 322 321 312 317 314 318 318 316 317 313 311 310 308 304 299 299 296 291 295 296 297 300 302 304 306 308 313 318 319 319 324 317 322 326
315 314 313 314 314 313 310 311 308 310 310 310 311 315 316 318 319 315 316 314 312 308 301 306 299 296 299 301 302 301 300 299 304 305 304 307 309 311 316 317 316 324 316 318 323
315 314 314 313 313 313 311 308 307 308 301 312 313 313 317 317 313 315 315 307 307 302 306 302 298 303 306 307 305 304 301 299 302 307 309 308 307 312 314 314 317 320 321 324 325
313 313 313 313 312 314 312 310 313 314 302 312 310 309 311 313 311 312 312 309 306 303 302 299 302 310 307 305 304 303 300 299 299 303 308 307 303 308 315 318 319 323 329 329 329
313 313 313 312 312 312 311 313 312 313 299 307 305 309 313 311 309 316 316 310 307 302 304 302 306 307 305 306 304 298 304 304 303 299 293 306 293 305 310 312 316 316 324 326 327
313 313 312 312 308 309 314 314 312 312 295 306 306 312 311 307 310 311 314 311 305 306 302 302 304 305 304 304 306 301 307 303 304 300 298 304 298 301 309 311 313 315 320 323 325
313 313 312 311 309 313 316 313 311 300 296 306 309 306 304 308 310 310 311 311 312 305 305 303 307 305 305 308 307 308 304 302 301 299 294 302 299 298 303 310 313 316 319 322 323
312 312 309 310 306 313 314 309 298 295 309 304 303 305 304 305 307 307 305 303 300 296 299 304 303 307 310 304 307 304 298 292 292 293 294 303 301 302 311 313 315 315 316 319 322
310 309 310 312 314 314 310 303 293 306 306 310 307 305 303 306 305 306 305 302 307 305 300 300 296 305 310 303 299 302 300 293 286 290 293 304 297 303 314 317 317 317 315 314 314
308 312 312 317 315 314 305 297 300 305 309 309 306 302 302 307 305 304 306 305 306 305 299 299 302 309 310 308 304 303 298 301 295 296 293 297 303 309 313 314 314 314 313 312 312
305 307 310 318 318 312 302 300 306 311 310 310 302 305 300 302 302 302 305 309 308 309 307 305 299 308 310 308 306 304 304 297 296 288 287 295 298 299 308 310 310 309 309 311 311
306 307 316 318 316 307 298 302 307 311 312 309 307 305 305 303 303 304 305 307 309 308 310 306 303 304 307 303 300 300 299 300 298 297 289 288 296 307 306 307 308 309 309 310 310
307 303 318 316 302 304 300 307 305 309 316 313 311 309 306 307 306 305 304 307 311 310 306 306 300 297 301 306 309 306 301 299 291 291 294 294 294 309 309 309 310 308 310 311 311
307 307 317 315 298 300 306 308 309 309 311 312 308 309 310 307 303 308 307 310 310 306 301 303 299 293 296 300 305 302 303 301 300 297 293 291 294 311 311 310 310 309 310 311 312
305 303 309 309 306 303 305 306 307 311 310 312 310 309 306 303 304 303 305 309 309 307 317 312 300 297 292 297 301 299 302 301 297 292 293 295 298 306 307 308 310 312 313 314 312
306 306 313 300 302 303 305 308 304 306 309 311 307 308 306 300 302 302 306 306 309 311 309 306 299 300 302 304 304 302 302 301 298 297 294 297 300 303 306 306 307 310 312 311 310
303 306 310 309 311 306 303 304 306 307 307 309 307 308 307 305 307 305 308 308 306 309 305 307 299 302 300 304 303 301 304 304 303 302 301 302 301 307 308 309 308 307 307 306 307
311 314 310 307 306 305 303 306 308 309 309 312 308 308 308 308 310 308 309 308 304 301 303 302 300 298 294 303 302 297 301 303 302 303 301 298 300 305 304 305 305 304 304 304 304
Wind_Speed
15 15 15 15 16 17 17 19 20 19 19 19 18 16 16 17 19 3 5 3 4 2 4 7 9 14 10 6 7 3 4 7 10 9 7 8 7 7 6 5 8 7 7 11 11
15 16 16 17 17 17 18 20 21 19 19 18 18 16 15 14 5 8 4 4 1 3 4 7 11 10 5 7 5 4 3 9 8 6 7 9 9 7 7 10 6 8 9 14 18
15 17 17 18 19 17 19 21 21 19 19 19 17 15 12 10 4 2 4 5 4 1 5 8 12 8 6 5 9 7 7 10 8 6 8 6 9 7 6 9 6 3 15 15 11
18 17 18 19 20 19 20 21 21 21 20 19 16 13 11 5 4 2 5 9 5 3 5 9 9 6 4 7 8 2 9 8 5 7 7 8 8 8 5 9 9 9 6 12 11
14 18 20 20 20 20 20 21 21 21 20 19 13 11 5 2 8 6 7 7 4 2 7 9 9 6 6 7 6 4 9 7 9 9 6 6 9 5 9 11 8 7 6 3 10
16 18 20 21 21 21 21 21 20 20 18 16 10 6 3 4 7 11 9 8 8 8 9 10 6 9 6 8 5 7 7 8 10 11 5 5 8 2 13 7 8 5 4 2 5
17 18 20 21 21 22 22 22 21 20 17 12 7 5 5 12 5 10 11 10 7 8 6 8 7 7 9 10 7 8 7 9 10 9 5 2 7 9 9 2 6 8 7 2 6
17 19 21 22 23 24 24 24 23 20 16 8 3 4 7 4 3 4 8 9 8 7 7 8 6 7 5 9 11 9 5 5 10 6 5 5 10 7 4 5 6 12 22 27 27
17 19 22 23 25 25 25 28 25 18 11 5 1 3 8 1 4 9 6 7 8 7 6 8 2 6 8 6 8 5 10 10 4 5 3 7 7 18 16 16 16 26 28 26 29
17 19 22 24 26 24 28 27 11 7 6 6 8 5 8 5 3 4 5 5 4 7 5 6 3 3 5 3 5 8 6 6 8 3 8 17 11 16 13 24 16 18 21 20 21
18 20 23 25 27 23 17 7 6 4 2 7 4 6 5 5 3 5 3 6 7 5 7 8 2 5 2 4 6 7 6 6 6 5 13 10 11 19 22 29 20 8 14 10 9
18 21 24 26 27 28 5 5 2 7 9 11 17 12 4 3 4 4 3 4 5 7 8 5 5 2 5 5 6 8 6 7 6 6 13 5 8 11 18 6 17 20 12 10 5
16 19 23 27 31 10 7 7 7 9 3 9 8 9 6 5 7 7 6 5 7 9 11 2 4 2 5 8 6 8 5 5 4 8 8 6 4 3 13 13 23 2 14 15 13
16 19 22 29 5 8 4 9 6 5 2 4 3 4 6 6 5 1 0 3 5 6 8 3 4 4 8 5 8 4 6 7 8 4 6 6 3 7 6 9 20 8 13 15 15
15 17 19 10 6 6 7 9 8 4 2 9 7 2 7 5 6 3 4 5 9 11 3 8 3 3 6 5 5 6 7 5 9 8 7 6 7 6 6 2 4 8 16 16 16
16 15 16 3 4 9 15 10 3 2 3 4 6 6 6 9 3 4 4 5 5 6 7 8 4 1 3 8 8 9 5 8 4 3 4 6 7 6 4 5 10 12 13 14 16
18 19 9 7 5 10 12 5 2 2 7 5 4 9 9 7 4 6 7 6 3 1 5 9 7 5 5 4 10 8 7 6 8 8 4 5 6 8 12 13 13 14 10 12 13
20 24 7 8 8 8 5 2 1 9 5 7 7 11 9 8 6 10 4 2 11 9 5 7 4 2 6 4 4 6 7 5 2 3 6 5 4 3 10 9 10 11 9 9 10
23 3 5 6 12 6 2 1 4 7 5 1 4 5 5 3 4 3 10 8 5 8 5 7 6 2 5 0 3 7 7 3 3 5 5 3 4 4 7 22 10 9 10 8 9
6 5 5 4 6 2 1 5 3 6 9 6 4 3 7 7 4 4 6 7 6 9 7 6 4 3 3 1 4 5 2 9 6 5 6 4 3 4 4 6 7 8 9 9 7
3 3 3 7 5 1 3 6 7 7 8 7 7 6 7 8 5 3 7 8 9 9 8 7 5 10 6 6 6 7 6 6 4 6 2 4 2 3 7 7 8 8 7 7 7
4 3 3 3 1 4 3 5 5 5 1 3 4 5 6 9 10 8 8 5 7 10 4 5 1 4 8 4 11 7 6 7 6 4 1 3 4 7 9 8 7 6 7 6 6
4 4 0 4 3 3 7 5 4 5 2 2 4 7 8 7 6 9 6 6 13 7 3 6 4 5 11 6 11 6 6 5 4 4 2 2 2 7 12 9 6 6 8 8 9
3 3 0 1 3 3 4 4 2 5 6 5 6 5 6 6 5 3 8 5 10 5 1 4 3 1 4 7 4 6 9 6 2 3 2 3 6 7 8 10 7 9 13 14 13
3 5 1 4 4 6 5 5 5 2 5 4 5 6 1 2 0 3 11 7 7 6 1 5 2 7 9 10 8 9 7 5 4 5 6 5 7 4 6 7 7 9 11 13 13
2 3 6 5 4 6 3 4 5 6 3 0 2 7 8 9 7 8 7 7 4 6 4 2 3 6 6 11 6 9 14 13 13 12 9 8 8 6 11 13 13 11 12 11 10
4 5 2 6 2 2 4 4 7 1 3 5 6 4 14 8 8 6 6 5 4 4 5 5 3 4 4 9 8 7 8 8 10 13 7 7 4 12 13 12 7 8 9 9 8
Wind_Direction
350 349 340 335 336 333 336 328 317 319 323 320 317 321 323 322 307 165 252 221 185 335 294 284 275 252 244 261 254 256 15 275 274 324 312 13 29 11 356 345 37 174 151 154 167
346 346 339 335 334 330 336 322 314 318 321 317 315 324 323 325 285 256 214 151 154 346 285 277 287 259 241 232 256 138 161 254 257 329 340 353 17 357 14 335 37 95 130 157 160
345 347 335 333 331 333 331 315 313 319 322 315 314 322 320 314 308 206 179 158 203 269 265 277 270 280 274 266 243 224 218 266 290 335 351 343 350 315 24 339 305 134 157 161 165
350 337 337 333 329 332 322 314 315 322 319 313 316 317 323 256 18 140 178 174 187 285 295 291 281 284 267 259 236 121 293 273 283 328 348 328 312 322 350 267 273 290 164 168 173
335 342 337 331 327 325 318 313 319 318 313 310 316 318 297 248 251 160 182 165 189 232 237 250 283 292 311 311 345 184 258 310 332 313 241 256 284 263 290 283 304 324 355 191 186
347 341 335 329 323 321 316 316 318 310 308 305 312 321 250 269 141 157 195 168 227 203 261 254 277 314 291 322 319 271 301 304 290 282 273 224 259 182 264 253 337 352 288 273 4
348 335 329 320 324 320 317 318 312 303 305 296 310 279 271 244 142 175 189 226 236 236 304 336 356 3 323 316 281 302 313 297 276 248 244 74 314 272 260 46 4 3 5 56 49
336 333 326 325 324 320 319 312 305 296 288 274 302 282 254 225 2 229 224 247 227 252 274 292 354 326 275 277 309 301 291 284 268 199 213 117 291 220 151 74 16 20 32 40 38
329 330 324 326 323 320 315 311 299 280 243 230 251 215 276 301 223 224 246 263 209 223 248 263 329 236 307 289 318 301 255 230 233 112 47 54 347 3 26 62 56 60 50 39 17
331 327 324 325 319 321 318 299 285 308 208 213 258 305 281 238 111 345 282 305 283 275 259 230 249 242 310 79 261 318 350 9 121 134 66 54 24 1 27 44 12 67 60 45 21
329 330 326 323 317 322 337 344 1 21 268 241 277 237 312 92 161 232 185 229 254 257 259 238 174 261 237 357 322 307 311 359 327 98 73 101 60 43 19 28 12 39 86 84 183
328 331 324 322 319 313 264 22 360 212 311 270 260 262 302 349 268 213 143 249 225 259 245 302 235 18 328 281 282 296 315 11 337 20 88 109 51 87 64 35 293 290 109 121 198
326 324 328 325 313 299 329 0 339 36 266 288 214 225 188 189 266 170 165 258 272 287 288 220 154 170 274 292 272 328 49 28 294 314 97 111 360 13 87 22 313 85 94 97 81
326 328 329 328 326 338 343 336 6 17 328 207 200 247 155 211 266 54 209 297 299 282 330 132 120 335 297 349 46 5 25 347 322 337 268 161 252 39 104 209 266 55 87 75 66
321 325 329 321 298 305 319 326 341 50 34 156 164 116 175 213 145 152 245 303 264 288 51 280 81 312 348 15 11 267 325 298 279 286 48 19 60 297 238 257 283 51 75 77 68
311 318 337 12 258 256 301 318 339 33 251 160 126 183 168 227 215 132 223 226 268 301 286 249 109 310 323 299 271 262 299 291 294 28 68 239 115 307 289 255 75 55 49 73 68
310 306 312 303 251 327 305 319 58 183 166 159 168 166 200 192 146 188 204 217 231 260 315 274 198 167 227 319 3 22 34 346 14 27 297 19 62 17 22 283 78 72 45 61 72
313 310 259 218 237 281 309 340 275 279 125 193 181 184 196 172 192 217 248 185 29 27 318 346 99 150 14 32 357 338 112 127 338 166 238 36 129 155 165 246 78 76 78 67 68
310 277 240 237 221 233 2 356 290 334 66 351 281 185 128 80 325 167 83 63 59 27 29 21 340 16 103 31 59 322 19 263 145 302 54 142 65 87 288 16 31 68 60 57 66
318 300 269 215 134 52 10 259 281 17 344 357 299 228 163 181 242 206 79 32 4 38 25 343 335 356 320 201 227 55 328 28 2 19 342 51 28 172 157 180 15 34 55 45 58
307 284 245 119 95 27 233 258 323 60 12 9 348 317 325 157 219 62 57 28 14 7 21 35 64 306 0 6 60 0 27 33 86 79 35 360 332 150 108 70 47 41 44 53 42
268 279 175 81 73 231 223 257 309 90 303 306 295 321 24 33 40 76 71 79 348 33 26 331 59 311 272 305 40 10 94 98 110 318 179 179 285 103 108 90 61 38 33 15 83
258 254 67 94 224 261 293 298 337 335 204 306 316 8 16 42 67 105 106 40 63 55 31 321 351 351 339 18 6 19 5 35 101 84 274 109 328 38 44 36 13 8 43 22 17
290 289 33 156 258 281 308 264 211 331 322 20 2 30 17 33 49 360 116 87 85 95 315 46 359 126 209 254 293 343 327 317 104 117 210 106 104 52 33 66 37 28 26 39 41
240 255 292 203 242 231 281 303 202 164 347 329 16 325 315 6 310 236 125 124 118 144 113 85 346 10 328 321 300 271 284 5 17 67 86 354 76 63 53 42 41 58 49 41 31
295 5 332 294 300 195 248 298 304 154 205 47 290 268 80 68 69 53 61 40 42 38 63 46 308 359 311 283 336 21 48 52 46 38 26 49 72 62 40 42 59 42 35 26 15
267 292 171 284 266 13 214 257 296 216 39 38 209 47 63 62 72 75 87 84 81 87 39 13 15 355 278 333 324 59 12 40 58 40 37 57 15 33 27 23 62 37 28 12 0